Weather History for KDEW - March, 2013

Change the Weather History Date:

Thursday, March 28, 2013

  Actual Average Record
Temperature  
Mean Temperature 44 °F 41 °F  
Max Temperature 60 °F 53 °F 60 °F (2013)
Min Temperature 28 °F 30 °F 16 °F (2008)
Degree Days  
Heating Degree Days 21 24  
Month to date heating degree days 769 773  
Since 1 July heating degree days 5847 6138  
Cooling Degree Days 0 0  
Month to date cooling degree days 0 0  
Year to date cooling degree days 0 0  
Moisture  
Dew Point 35 °F    
Average Humidity 70    
Maximum Humidity 100    
Minimum Humidity 40    
Precipitation  
Precipitation 0.00 in 0.08 in 0.49 in (2014)
Month to date precipitation 1.05 1.86  
Year to date precipitation 3.48 6.09  
Sea Level Pressure  
Sea Level Pressure 30.06 in    
Wind  
Wind Speed 3 mph (SSW)    
Max Wind Speed 12 mph    
Max Gust Speed 14 mph    
Visibility 9 miles    
Events      
T = Trace of Precipitation, MM = Missing Value Source: NWS Daily Summary

Daily Weather History Graph

Daily Weather History Graph

Search for Another Location

Airport or City:

Trip Planner

Search our weather history database for the weather conditions in past years. The results will help you decide how hot, cold, wet, or windy it might be!

Date:

Astronomy

Mar. 28, 2013 Rise Set
Actual Time 6:35 AM PDT 7:14 PM PDT
Civil Twilight 6:04 AM PDT 7:45 PM PDT
Nautical Twilight 5:27 AM PDT 8:23 PM PDT
Astronomical Twilight 4:48 AM PDT 9:02 PM PDT
Moon 9:23 PM PDT (3/28) 6:57 AM PDT (3/28)
Length of Visible Light 13h 41m
Length of Day
12h 39m
Full, 98% of the Moon is Illuminated
Mar 28
Full
Apr 2
Last Quarter
Apr 10
New
Apr 18
First Quarter
Apr 25
Full

Hourly Weather History & Observations

Time (PDT) Temp. Windchill Dew Point Humidity Pressure Visibility Wind Dir Wind Speed Gust Speed Precip Events Conditions
12:53 AM 37.0 °F - 34.0 °F 89% 30.02 in 10.0 mi Calm Calm - N/A   Overcast
1:53 AM 37.9 °F - 35.1 °F 89% 30.02 in 10.0 mi Calm Calm - N/A   Overcast
2:53 AM 35.1 °F - 33.1 °F 92% 30.03 in 10.0 mi Calm Calm - N/A   Overcast
3:53 AM 30.9 °F 27.5 °F 28.9 °F 92% 30.03 in 10.0 mi North 3.5 mph - N/A   Partly Cloudy
4:53 AM 32.0 °F 28.7 °F 28.9 °F 88% 30.04 in 10.0 mi South 3.5 mph - N/A   Clear
5:53 AM 30.0 °F 26.5 °F 28.9 °F 96% 30.05 in 10.0 mi West 3.5 mph - N/A   Clear
6:33 AM 28.4 °F - 28.4 °F 100% 30.03 in 1.8 mi Calm Calm - N/A   Mostly Cloudy
6:49 AM 30.2 °F - 28.4 °F 93% 30.03 in 2.5 mi Calm Calm - N/A   Mostly Cloudy
6:53 AM 30.0 °F 26.5 °F 28.0 °F 92% 30.07 in 3.0 mi NNW 3.5 mph - N/A   Overcast
7:53 AM 34.0 °F - 33.1 °F 96% 30.08 in 10.0 mi Calm Calm - N/A   Scattered Clouds
8:53 AM 44.1 °F - 36.0 °F 73% 30.08 in 10.0 mi Calm Calm - N/A   Partly Cloudy
9:53 AM 48.9 °F - 36.0 °F 61% 30.09 in 10.0 mi ENE 4.6 mph - N/A   Scattered Clouds
10:53 AM 51.1 °F - 39.0 °F 63% 30.09 in 10.0 mi South 3.5 mph - N/A   Clear
11:53 AM 53.1 °F - 39.0 °F 59% 30.09 in 10.0 mi SSE 4.6 mph - N/A   Mostly Cloudy
12:53 PM 55.0 °F - 37.9 °F 53% 30.07 in 10.0 mi Calm Calm - N/A   Overcast
1:53 PM 57.0 °F - 37.0 °F 47% 30.06 in 10.0 mi WSW 3.5 mph - N/A   Mostly Cloudy
2:53 PM 59.0 °F - 35.1 °F 41% 30.04 in 10.0 mi SW 8.1 mph - N/A   Scattered Clouds
3:53 PM 57.9 °F - 37.0 °F 46% 30.04 in 10.0 mi SW 6.9 mph - N/A   Mostly Cloudy
4:53 PM 57.9 °F - 37.9 °F 47% 30.05 in 10.0 mi SSW 8.1 mph - N/A   Overcast
5:53 PM 57.0 °F - 39.0 °F 51% 30.05 in 10.0 mi South 9.2 mph - N/A   Overcast
6:53 PM 54.0 °F - 39.9 °F 59% 30.06 in 10.0 mi SSE 6.9 mph - N/A   Overcast
7:53 PM 50.0 °F - 41.0 °F 71% 30.07 in 10.0 mi SSE 4.6 mph - N/A   Overcast
8:53 PM 48.0 °F - 39.9 °F 74% 30.07 in 10.0 mi Calm Calm - N/A   Overcast
9:53 PM 45.0 °F - 39.0 °F 80% 30.08 in 10.0 mi Calm Calm - N/A   Overcast
10:53 PM 41.0 °F - 37.0 °F 86% 30.09 in 10.0 mi Calm Calm - N/A   Overcast
11:53 PM 37.9 °F - 36.0 °F 93% 30.10 in 10.0 mi Calm Calm - N/A   Clear